Flag for Dominican Republic Weather past 2 weeks in Puerto Plata, Dominican Republic

Now
82 °F

Passing clouds.


Feels Like: 89 °F
Forecast: 80 / 86 °F
Wind: 14 mph from East

Location: Puerto Plata International

Current Time: Jul 7, 2015 at 8:40:02 PM

Latest Report: Jul 7, 2015 at 8:00 PM


Visibility: N/A

Pressure: 30.07 "Hg

Humidity: 79%

Dew point: 75 °F

Location of Puerto PlataLocation

Historic Weather in Puerto Plata — Graph

°F

Puerto Plata temperature yesterday

Maximum temperature yesterday: 90 °F (at 3:00 PM)
Minimum temperature yesterday: 77 °F (at 5:00 AM)
Average temperature yesterday: 84 °F

Past Weeks' High & Low Weather Summary

 TemperatureHumidityPressure
High93 °F (Jun 25, 12:00 PM)100% (Jun 23, 5:00 AM)30.12 "Hg (Jun 23, 5:00 AM)
Low75 °F (Jun 23, 5:00 AM)49% (Jun 23, 3:00 PM)29.98 "Hg (Jul 3, 3:00 PM)
Average85 °F73%30.07 "Hg
* Reported Jun 22 7:00 PM — Jul 7 7:00 PM, Puerto Plata, Weather by CustomWeather, © 2015

Note: Actual official high and low records may vary slightly from our data, if they occured in-between our weather recording intervals... More about our weather records

Advertising

Puerto Plata weather history for previous 24 hours

 ConditionsComfort  
Time TempWeatherWind HumidityBarometerVisibility
7:00 PM
Tue, Jul 7
84 °FScattered clouds.17 mph74%30.04 "HgN/A
6:00 PM86 °FScattered clouds.12 mph70%30.04 "HgN/A
5:00 PM88 °FScattered clouds.17 mph79%30.04 "HgN/A
4:00 PM90 °FPassing clouds.23 mph63%30.04 "HgN/A
3:00 PM90 °FPassing clouds.17 mph63%30.04 "HgN/A
2:00 PM90 °FPassing clouds.21 mph67%30.04 "HgN/A
1:00 PM90 °FPassing clouds.20 mph63%30.07 "HgN/A
12:00 PM90 °FPassing clouds.17 mph63%30.07 "HgN/A
11:00 AM88 °FPassing clouds.17 mph62%30.07 "HgN/A
10:00 AM86 °FScattered clouds.12 mph66%30.07 "HgN/A
9:00 AM84 °FPassing clouds.12 mph74%30.07 "HgN/A
8:00 AM81 °FPassing clouds.12 mph79%30.07 "HgN/A
7:00 AM77 °FPassing clouds.6 mph89%30.04 "HgN/A
5:00 AM77 °FPassing clouds.No wind89%30.04 "HgN/A
11:00 PM
Mon, Jul 6
81 °FPassing clouds.3 mph84%30.07 "HgN/A
8:00 PM82 °FPassing clouds.12 mph79%30.04 "HgN/A
Weather by CustomWeather, © 2015

See weather overviewHow to use our weather pages